Mobridge, SD

9:32 AM CDT on June 22, 2017 (GMT -0500)
Mobridge Municipal

Weather History for KMBG - December, 2013

Change the Weather History Date:

Wednesday, December 11, 2013

  Actual Average Record
Temperature  
Mean Temperature -4 °F 19 °F  
Max Temperature 11 °F 30 °F 64 °F (1939)
Min Temperature -20 °F 8 °F -22 °F (1917)
Degree Days  
Heating Degree Days 69 46  
Month to date heating degree days 640 485  
Since 1 July heating degree days 2448 2251  
Cooling Degree Days 0 0  
Month to date cooling degree days 0 0  
Year to date cooling degree days 700 644  
Moisture  
Dew Point -8 °F    
Average Humidity 73    
Maximum Humidity 81    
Minimum Humidity 64    
Precipitation  
Precipitation 0.00 in 0.01 in 0.79 in (1965)
Month to date precipitation 0.34 0.09  
Year to date precipitation 23.26 17.52  
Snow  
Snow 0.00 in - - ()
Month to date snowfall 7.6  
Since 1 July snowfall 8.6  
Snow Depth 3.00 in    
Sea Level Pressure  
Sea Level Pressure 30.44 in    
Wind  
Wind Speed 7 mph (SSE)    
Max Wind Speed 15 mph    
Max Gust Speed 18 mph    
Visibility 10 miles    
Events      
T = Trace of Precipitation, MM = Missing Value Source: NWS Daily Summary

Daily Weather History Graph

Daily Weather History Graph

Search for Another Location

Airport or City:

Trip Planner

Search our weather history database for the weather conditions in past years. The results will help you decide how hot, cold, wet, or windy it might be!

Date:

Astronomy

Dec. 11, 2013 Rise Set
Actual Time 8:12 AM CST 4:58 PM CST
Civil Twilight 7:37 AM CST 5:32 PM CST
Nautical Twilight 7:00 AM CST 6:09 PM CST
Astronomical Twilight 6:24 AM CST 6:45 PM CST
Moon 1:44 PM CST (12/11) 2:21 AM CST (12/11)
Length of Visible Light 9h 54m
Length of Day
8h 45m
Waxing Gibbous, 72% of the Moon is Illuminated
Dec 11
Waxing Gibbous
Dec 17
Full
Dec 25
Last Quarter
Jan 1
New
Jan 7
First Quarter

Hourly Weather History & Observations

Time (CST) Temp. Windchill Dew Point Humidity Pressure Visibility Wind Dir Wind Speed Gust Speed Precip Events Conditions
12:52 AM -9.9 °F -24.9 °F -16.1 °F 74% 30.53 in 10.0 mi NW 6.9 mph - N/A   Clear
1:52 AM -11.0 °F -26.2 °F -16.1 °F 78% 30.54 in 10.0 mi NW 6.9 mph - N/A   Clear
2:52 AM -9.0 °F -25.2 °F -15.0 °F 75% 30.54 in 10.0 mi NW 8.1 mph - N/A   Clear
3:52 AM -11.0 °F -28.8 °F -17.0 °F 75% 30.55 in 10.0 mi NNW 9.2 mph - N/A   Clear
4:52 AM -15.0 °F - -20.9 °F 75% 30.56 in 10.0 mi Calm Calm - N/A   Clear
5:52 AM -18.9 °F - -22.0 °F 86% 30.57 in 10.0 mi Calm Calm - N/A   Clear
6:52 AM -16.1 °F -26.2 °F -20.0 °F 82% 30.57 in 10.0 mi NNE 3.5 mph - N/A   Clear
7:52 AM -18.0 °F - -22.0 °F 82% 30.58 in 10.0 mi Calm Calm - N/A   Clear
8:52 AM -11.9 °F -23.8 °F -17.0 °F 78% 30.57 in 10.0 mi SE 4.6 mph - N/A   Clear
9:52 AM -9.0 °F -25.2 °F -15.0 °F 75% 30.56 in 10.0 mi SSE 8.1 mph - N/A   Clear
10:52 AM -6.0 °F -20.1 °F -11.9 °F 75% 30.54 in 10.0 mi SSE 6.9 mph - N/A   Clear
11:52 AM -2.9 °F -17.7 °F -9.0 °F 75% 30.50 in 10.0 mi South 8.1 mph - N/A   Partly Cloudy
12:52 PM 3.0 °F -14.1 °F -2.9 °F 76% 30.46 in 10.0 mi South 12.7 mph - N/A   Partly Cloudy
1:52 PM 6.1 °F -10.9 °F -0.0 °F 76% 30.42 in 10.0 mi South 13.8 mph - N/A   Clear
2:52 PM 9.0 °F -6.6 °F 1.9 °F 73% 30.36 in 10.0 mi South 12.7 mph - N/A   Clear
3:52 PM 9.0 °F -6.6 °F 1.9 °F 73% 30.33 in 10.0 mi SSE 12.7 mph - N/A   Scattered Clouds
4:52 PM 9.0 °F -4.2 °F 3.0 °F 77% 30.34 in 10.0 mi SSE 9.2 mph - N/A   Clear
5:52 PM 10.0 °F -5.2 °F 3.0 °F 73% 30.33 in 10.0 mi SSE 12.7 mph - N/A   Clear
6:52 PM 10.0 °F -2.9 °F 3.0 °F 73% 30.31 in 10.0 mi South 9.2 mph - N/A   Scattered Clouds
7:52 PM 8.1 °F -4.3 °F 1.9 °F 76% 30.31 in 10.0 mi South 8.1 mph - N/A   Partly Cloudy
8:52 PM 6.1 °F -4.3 °F -0.0 °F 76% 30.29 in 10.0 mi SSE 5.8 mph - N/A   Clear
9:52 PM 8.1 °F 1.4 °F 1.9 °F 76% 30.28 in 10.0 mi ESE 3.5 mph - N/A   Clear
10:52 PM 6.1 °F - 1.9 °F 83% 30.30 in 10.0 mi Calm Calm - N/A   Clear
11:52 PM 3.9 °F - 1.0 °F 88% 30.30 in 10.0 mi Calm Calm - N/A   Clear